KAL215 RKSS-RKPC

Flight info

Callsign KAL215
Flight time 0h 20m
Altitude 30000
Route BULTI2U BULTI Y711 DOTOL DOTOL1M
Aircraft B77L/H-SDE1E2E3FGHIJ2J3J4J5M1RWXY/LB1D1

Departure

Time 2026-05-06 16:44
Airport Gimpo International Airport (RKSS)

Arrival

Time 2026-05-06 17:04
Airport Jeju International Airport (RKPC)
Time Latitude Longitude Altitude Speed Heading
2026-05-06 16:38 37.55097 126.80653 63 ft 3 kts 225°
2026-05-06 16:38 37.55084 126.80634 61 ft 3 kts 229°
2026-05-06 16:38 37.55082 126.80624 66 ft 3 kts 277°
2026-05-06 16:39 37.55092 126.80611 64 ft 2 kts 315°
2026-05-06 16:39 37.55089 126.80616 63 ft 1 kts 315°
2026-05-06 16:41 37.55110 126.80589 65 ft 18 kts 315°
2026-05-06 16:41 37.55282 126.80372 63 ft 50 kts 315°
2026-05-06 16:41 37.55593 126.79980 65 ft 75 kts 315°
2026-05-06 16:42 37.55962 126.79516 63 ft 73 kts 315°
2026-05-06 16:42 37.56224 126.79187 65 ft 33 kts 315°
2026-05-06 16:42 37.56331 126.79052 62 ft 18 kts 312°
2026-05-06 16:42 37.56315 126.78975 63 ft 10 kts 184°
2026-05-06 16:43 37.56244 126.78992 63 ft 11 kts 167°
2026-05-06 16:43 37.56132 126.79031 64 ft 31 kts 155°
2026-05-06 16:43 37.55816 126.79404 64 ft 110 kts 135°
2026-05-06 16:43 37.55043 126.80382 216 ft 189 kts 135°
2026-05-06 16:44 37.54130 126.81533 1441 ft 182 kts 140°
2026-05-06 16:44 37.53202 126.82685 2327 ft 204 kts 141°
2026-05-06 16:44 37.52110 126.84036 2615 ft 237 kts 140°
2026-05-06 16:44 37.50879 126.85575 3207 ft 257 kts 139°
2026-05-06 16:45 37.49459 126.86950 3927 ft 260 kts 162°
2026-05-06 16:45 37.47731 126.87617 4765 ft 265 kts 167°
2026-05-06 16:45 37.45960 126.88280 5582 ft 267 kts 168°
2026-05-06 16:45 37.44109 126.88528 6384 ft 270 kts 185°
2026-05-06 16:46 37.40091 126.88132 8427 ft 277 kts 188°
2026-05-06 16:46 37.38154 126.87909 9353 ft 282 kts 187°
2026-05-06 16:46 37.36178 126.87697 10246 ft 288 kts 187°
2026-05-06 16:47 37.29659 126.87079 12125 ft 333 kts 185°
2026-05-06 16:47 37.08817 126.85395 15881 ft 401 kts 185°
2026-05-06 16:47 36.85976 126.83714 17389 ft 440 kts 184°
2026-05-06 16:47 36.77252 126.83276 19619 ft 444 kts 184°
2026-05-06 16:48 36.74204 126.83122 20836 ft 434 kts 184°
2026-05-06 16:48 36.71187 126.82962 21782 ft 434 kts 184°
2026-05-06 16:48 36.34435 126.80935 28864 ft 474 kts 185°
2026-05-06 16:48 36.13685 126.79784 30330 ft 508 kts 185°
2026-05-06 16:49 35.86053 126.78220 29954 ft 481 kts 186°
2026-05-06 16:49 35.71726 126.76546 30083 ft 497 kts 188°
2026-05-06 16:49 35.65977 126.75872 30049 ft 510 kts 187°
2026-05-06 16:50 35.58891 126.75114 30038 ft 509 kts 187°
2026-05-06 16:50 35.55388 126.74746 30000 ft 495 kts 187°
2026-05-06 16:50 35.52063 126.74397 29725 ft 464 kts 187°
2026-05-06 16:50 35.49974 126.74176 29498 ft 446 kts 188°
2026-05-06 16:51 35.45915 126.73744 28988 ft 437 kts 188°
2026-05-06 16:51 35.40669 126.73188 28497 ft 423 kts 188°
2026-05-06 16:51 35.28213 126.71856 26631 ft 408 kts 188°
2026-05-06 16:51 34.94157 126.68225 21478 ft 378 kts 188°
2026-05-06 16:52 34.81900 126.66922 19633 ft 367 kts 187°
2026-05-06 16:52 34.62485 126.64902 15880 ft 318 kts 188°
2026-05-06 16:52 34.45852 126.63135 12481 ft 321 kts 187°
2026-05-06 16:52 34.43644 126.62908 12211 ft 315 kts 187°
2026-05-06 16:53 34.39589 126.62522 11347 ft 302 kts 182°
2026-05-06 16:53 34.35432 126.63108 10683 ft 298 kts 173°
2026-05-06 16:53 34.31378 126.63957 10011 ft 294 kts 173°
2026-05-06 16:53 34.27364 126.64756 9270 ft 290 kts 173°
2026-05-06 16:54 34.23452 126.65499 8742 ft 279 kts 173°
2026-05-06 16:54 34.19675 126.66198 8115 ft 271 kts 174°
2026-05-06 16:54 34.15968 126.66876 7410 ft 268 kts 174°
2026-05-06 16:54 34.12308 126.67541 6711 ft 263 kts 174°
2026-05-06 16:55 34.08709 126.68194 5981 ft 260 kts 173°
2026-05-06 16:55 34.05153 126.68838 5214 ft 257 kts 173°
2026-05-06 16:55 34.01632 126.69475 4494 ft 253 kts 173°
2026-05-06 16:55 33.98204 126.70094 4255 ft 255 kts 173°
2026-05-06 16:56 33.95017 126.70665 4430 ft 318 kts 173°
2026-05-06 16:56 33.91910 126.71225 4380 ft 326 kts 172°
2026-05-06 16:56 33.89727 126.71621 4222 ft 308 kts 172°
2026-05-06 16:56 33.87693 126.71991 4078 ft 282 kts 172°
2026-05-06 16:57 33.84000 126.72660 3818 ft 227 kts 173°
2026-05-06 16:57 33.82401 126.72947 3943 ft 234 kts 173°
2026-05-06 16:57 33.80847 126.73180 3947 ft 222 kts 183°
2026-05-06 16:57 33.78351 126.72594 4010 ft 202 kts 195°
2026-05-06 16:58 33.76731 126.72091 4058 ft 195 kts 195°
2026-05-06 16:58 33.74684 126.71477 3875 ft 180 kts 194°
2026-05-06 16:58 33.73438 126.71114 3597 ft 174 kts 194°
2026-05-06 16:58 33.72285 126.70784 3352 ft 168 kts 194°
2026-05-06 16:59 33.71160 126.70465 3069 ft 163 kts 194°
2026-05-06 16:59 33.69864 126.70101 3037 ft 161 kts 193°
2026-05-06 16:59 33.62261 126.68012 3025 ft 163 kts 193°
2026-05-06 16:59 33.59737 126.66575 2911 ft 172 kts 250°
2026-05-06 17:00 33.59334 126.65223 2991 ft 173 kts 240°
2026-05-06 17:00 33.58753 126.63994 2896 ft 165 kts 237°
2026-05-06 17:00 33.57852 126.62203 2339 ft 150 kts 236°
2026-05-06 17:00 33.57257 126.61033 1997 ft 144 kts 237°
2026-05-06 17:01 33.56728 126.59996 1835 ft 148 kts 236°
2026-05-06 17:01 33.56188 126.58941 1815 ft 149 kts 237°
2026-05-06 17:01 33.55643 126.57873 1745 ft 154 kts 236°
2026-05-06 17:01 33.55084 126.56779 1447 ft 150 kts 237°
2026-05-06 17:02 33.54551 126.55738 1241 ft 148 kts 237°
2026-05-06 17:02 33.54005 126.54674 1050 ft 152 kts 238°
2026-05-06 17:02 33.53451 126.53594 843 ft 152 kts 238°
2026-05-06 17:02 33.52900 126.52520 654 ft 151 kts 238°
2026-05-06 17:03 33.52354 126.51452 428 ft 150 kts 237°
2026-05-06 17:03 33.51811 126.50384 257 ft 151 kts 237°
2026-05-06 17:03 33.51263 126.49323 105 ft 147 kts 236°
2026-05-06 17:03 33.50931 126.48676 99 ft 126 kts 238°
2026-05-06 17:04 33.50635 126.48102 98 ft 48 kts 237°
2026-05-06 17:04 33.50383 126.47948 100 ft 10 kts 109°
2026-05-06 17:04 33.50393 126.48005 99 ft 13 kts 64°
2026-05-06 17:04 33.50487 126.48190 100 ft 36 kts 59°
2026-05-06 17:05 33.50629 126.48466 97 ft 39 kts 58°
2026-05-06 17:05 33.50766 126.48733 98 ft 37 kts 58°
2026-05-06 17:05 33.50897 126.48987 95 ft 35 kts 58°
2026-05-06 17:05 33.51022 126.49229 96 ft 33 kts 59°
2026-05-06 17:06 33.51028 126.49346 98 ft 14 kts 135°
2026-05-06 17:06 33.50951 126.49419 99 ft 14 kts 116°
2026-05-06 17:06 33.50934 126.49539 100 ft 17 kts 106°
2026-05-06 17:06 33.50870 126.49666 103 ft 14 kts 126°
2026-05-06 17:07 33.50815 126.49758 105 ft 14 kts 126°
2026-05-06 17:07 33.50760 126.49851 108 ft 11 kts 126°
2026-05-06 17:07 33.50733 126.49874 107 ft 2 kts 172°
2026-05-06 17:07 33.50718 126.49870 107 ft 3 kts 210°
2026-05-06 17:08 33.50706 126.49858 107 ft 1 kts 216°
2026-05-06 17:08 33.50703 126.49856 107 ft 0 kts 216°